| time (UTC) | temp F | wind direction | speed MPH | gust MPH | rain 1hr in | rain 24hr in | rain mn in | humidity % | barometer mb |
| 20260902071406 | 91 | 202 | 2.0 | 7.0 | 0.00 | 0.00 | 0.00 | 42 | 1011.9 |
| 20260902070405 | 91 | 206 | 2.0 | 5.0 | 0.00 | 0.00 | 0.00 | 42 | 1011.8 |
| 20260902064405 | 91 | 207 | 2.0 | 5.0 | 0.00 | 0.00 | 0.00 | 41 | 1011.7 |
| 20260902063406 | 91 | 209 | 2.0 | 5.0 | 0.00 | 0.00 | 0.00 | 41 | 1011.7 |
| 20260902061404 | 91 | 213 | 2.0 | 5.0 | 0.00 | 0.00 | 0.00 | 42 | 1011.7 |
| 20260902060404 | 91 | 213 | 2.0 | 3.0 | 0.00 | 0.00 | 0.00 | 42 | 1011.8 |
| 20260902053405 | 92 | 213 | 1.0 | 3.0 | 0.00 | 0.00 | 0.00 | 41 | 1011.8 |
| 20260902051404 | 92 | 215 | 1.0 | 3.0 | 0.00 | 0.00 | 0.00 | 41 | 1011.8 |
| 20260902044404 | 93 | 215 | 2.0 | 2.0 | 0.00 | 0.00 | 0.00 | 40 | 1011.6 |
| 20260902041404 | 94 | 215 | 0.0 | 3.0 | 0.00 | 0.00 | 0.00 | 40 | 1011.3 |
| 20260902040404 | 94 | 216 | 1.0 | 3.0 | 0.00 | 0.00 | 0.00 | 39 | 1011.2 |
| 20260902034405 | 94 | 220 | 2.0 | 3.0 | 0.00 | 0.00 | 0.00 | 39 | 1011.0 |
| 20260902033403 | 94 | 220 | 1.0 | 2.0 | 0.00 | 0.00 | 0.00 | 40 | 1010.8 |
| 20260902031404 | 94 | 220 | 1.0 | 2.0 | 0.00 | 0.00 | 0.00 | 38 | 1010.3 |
| 20260902030404 | 94 | 220 | 0.0 | 2.0 | 0.00 | 0.00 | 0.00 | 38 | 1010.2 |
| 20260902024404 | 95 | 220 | 1.0 | 2.0 | 0.00 | 0.00 | 0.00 | 36 | 1010.0 |
| 20260901224403 | 100 | 209 | 2.0 | 3.0 | 0.00 | 0.00 | 0.00 | 34 | 1011.1 |
| 20260901221404 | 102 | 237 | 6.0 | 9.0 | 0.00 | 0.00 | 0.00 | 33 | 1011.4 |
| 20260901220406 | 100 | 230 | 4.0 | 5.0 | 0.00 | 0.00 | 0.00 | 35 | 1011.5 |
| 20260901214404 | 102 | 225 | 5.0 | 7.0 | 0.00 | 0.00 | 0.00 | 33 | 1011.8 |
| 20260901211403 | 102 | 200 | 3.0 | 9.0 | 0.00 | 0.00 | 0.00 | 34 | 1012.4 |
| 20260901210403 | 101 | 247 | 1.0 | 8.0 | 0.00 | 0.00 | 0.00 | 33 | 1012.4 |
| 20260901204404 | 101 | 237 | 5.0 | 12.0 | 0.00 | 0.00 | 0.00 | 35 | 1012.8 |
| 20260901203407 | 100 | 195 | 2.0 | 7.0 | 0.00 | 0.00 | 0.00 | 37 | 1013.0 |
| 20260901201406 | 99 | 138 | 1.0 | 3.0 | 0.00 | 0.00 | 0.00 | 36 | 1013.3 |
| 20260901200403 | 100 | 287 | 5.0 | 8.0 | 0.00 | 0.00 | 0.00 | 37 | 1013.5 |
| 20260901194404 | 100 | 105 | 2.0 | 3.0 | 0.00 | 0.00 | 0.00 | 38 | 1013.6 |
| 20260901193405 | 98 | 186 | 2.0 | 7.0 | 0.00 | 0.00 | 0.00 | 37 | 1013.8 |
| 20260901191403 | 98 | 126 | 2.0 | 3.0 | 0.00 | 0.00 | 0.00 | 38 | 1014.0 |
| 20260901190404 | 98 | 128 | 1.0 | 7.0 | 0.00 | 0.00 | 0.00 | 39 | 1014.1 |
| 20260901183405 | 97 | 213 | 3.0 | 6.0 | 0.00 | 0.00 | 0.00 | 41 | 1014.6 |
| 20260901181404 | 95 | 184 | 3.0 | 6.0 | 0.00 | 0.00 | 0.00 | 43 | 1014.7 |
| 20260901173403 | 93 | 138 | 2.0 | 7.0 | 0.00 | 0.00 | 0.00 | 46 | 1015.1 |
| 20260901171406 | 92 | 90 | 3.0 | 5.0 | 0.00 | 0.00 | 0.00 | 45 | 1015.2 |
| 20260901170404 | 91 | 91 | 1.0 | 7.0 | 0.00 | 0.01 | 0.00 | 47 | 1015.2 |
| 20260901164403 | 90 | 105 | 3.0 | 7.0 | 0.00 | 0.07 | 0.00 | 49 | 1015.0 |
| 20260901163405 | 89 | 130 | 3.0 | 5.0 | 0.00 | 0.14 | 0.00 | 50 | 1015.1 |
| 20260901161404 | 88 | 114 | 3.0 | 7.0 | 0.00 | 0.20 | 0.00 | 51 | 1015.0 |
| 20260901160403 | 87 | 106 | 5.0 | 8.0 | 0.00 | 0.24 | 0.00 | 53 | 1014.9 |
| 20260901154403 | 85 | 149 | 3.0 | 5.0 | 0.00 | 0.24 | 0.00 | 55 | 1014.9 |
| 20260901153405 | 84 | 155 | 3.0 | 3.0 | 0.00 | 0.24 | 0.00 | 58 | 1014.8 |
| 20260901151405 | 80 | 153 | 1.0 | 2.0 | 0.00 | 0.24 | 0.00 | 65 | 1014.8 |
| 20260901150404 | 79 | 153 | 0.0 | 3.0 | 0.00 | 0.24 | 0.00 | 67 | 1014.7 |
| 20260901143405 | 78 | 153 | 2.0 | 3.0 | 0.00 | 0.24 | 0.00 | 70 | 1014.4 |
| 20260901141404 | 77 | 153 | 1.0 | 2.0 | 0.00 | 0.24 | 0.00 | 70 | 1014.4 |
| 20260901140405 | 77 | 153 | 1.0 | 3.0 | 0.00 | 0.24 | 0.00 | 70 | 1014.4 |
| 20260901133403 | 77 | 153 | 0.0 | 0.0 | 0.00 | 0.24 | 0.00 | 69 | 1014.3 |
| 20260901131404 | 77 | 153 | 0.0 | 0.0 | 0.00 | 0.24 | 0.00 | 69 | 1014.1 |
| 20260901130404 | 77 | 153 | 0.0 | 0.0 | 0.00 | 0.24 | 0.00 | 69 | 1014.1 |
| 20260901124404 | 78 | 153 | 0.0 | 0.0 | 0.00 | 0.24 | 0.00 | 69 | 1013.9 |
| 20260901121404 | 78 | 153 | 0.0 | 0.0 | 0.00 | 0.24 | 0.00 | 67 | 1013.9 |
| 20260901120406 | 78 | 153 | 0.0 | 0.0 | 0.00 | 0.24 | 0.00 | 66 | 1013.9 |
| 20260901113404 | 78 | 153 | 0.0 | 0.0 | 0.00 | 0.24 | 0.00 | 66 | 1013.6 |
| 20260901111404 | 78 | 153 | 0.0 | 0.0 | 0.00 | 0.24 | 0.00 | 66 | 1013.5 |
| 20260901110404 | 79 | 153 | 0.0 | 1.0 | 0.00 | 0.24 | 0.00 | 65 | 1013.3 |